This is the latest recevied weather packets stored in our database for station/object N4CRH-13. If no packets are shown the sender has not sent any weather packets the latest 10 day(s).
| Time | Temp. | Humidity | Pressure | Rain* | Wind** | Luminosity | Snow |
|---|---|---|---|---|---|---|---|
| 1777866041 | 9.44° C | 44% | 1292.3 hPa | 0 mm | - | 0 W/m² | - |
| 1777865739 | 9.44° C | 45% | 1292.4 hPa | 0 mm | - | 0 W/m² | - |
| 1777865436 | 10° C | 44% | 1292.2 hPa | 0 mm | - | 0 W/m² | - |
| 1777865133 | 9.44° C | 44% | 1292.3 hPa | 0 mm | - | 0 W/m² | - |
| 1777864829 | 10° C | 47% | 1292.3 hPa | 0 mm | - | 0 W/m² | - |
| 1777864526 | 10.56° C | 42% | 1292.4 hPa | 0 mm | - | 0 W/m² | - |
| 1777864222 | 10.56° C | 41% | 1292.3 hPa | 0 mm | - | 0 W/m² | - |
| 1777863920 | 11.11° C | 36% | 1292.3 hPa | 0 mm | - | 0 W/m² | - |
| 1777863616 | 10.56° C | 41% | 1292.3 hPa | 0 mm | - | 0 W/m² | - |
| 1777863313 | 11.11° C | 41% | 1292 hPa | 0 mm | - | 0 W/m² | - |
| 1777863010 | 11.11° C | 38% | 1291.9 hPa | 0 mm | - | 0 W/m² | - |
| 1777862707 | 12.22° C | 40% | 1292 hPa | 0 mm | - | 0 W/m² | - |
| 1777862404 | 12.78° C | 34% | 1292.2 hPa | 0 mm | - | 0 W/m² | - |
| 1777862100 | 12.22° C | 35% | 1292.2 hPa | 0 mm | - | 0 W/m² | - |
| 1777861796 | 12.22° C | 34% | 1291.9 hPa | 0 mm | - | 0 W/m² | - |
| 1777861492 | 12.22° C | 39% | 1292.2 hPa | 0 mm | - | 0 W/m² | - |
| 1777861189 | 12.78° C | 39% | 1292 hPa | 0 mm | - | 0 W/m² | - |
| 1777860887 | 13.33° C | 38% | 1292.2 hPa | 0 mm | - | 0 W/m² | - |
| 1777860583 | 13.89° C | 32% | 1292.3 hPa | 0 mm | - | 0 W/m² | - |
| 1777860280 | 14.44° C | 31% | 1292.3 hPa | 0 mm | - | 0 W/m² | - |
| 1777859977 | 14.44° C | 29% | 1292.4 hPa | 0 mm | - | 0 W/m² | - |
| 1777859673 | 15° C | 29% | 1291.8 hPa | 0 mm | - | 1 W/m² | - |
| 1777859369 | 15° C | 29% | 1292 hPa | 0 mm | - | 1 W/m² | - |
| 1777859065 | 15° C | 28% | 1292 hPa | 0 mm | - | 2 W/m² | - |
| 1777858762 | 15° C | 30% | 1291.5 hPa | 0 mm | - | 3 W/m² | - |
* Rain latest hour (hover to see other rain measurements)
** Current wind speed in m/s (hover to see current wind gust speed)